Simultaneous Nadir Overpasses (SNOs) Predictions

Prediction of SNOs between GOES-16 and TERRA Satellite Orbit:

Table of predicted SNOs for the next 14.0 days since TLE Epoch: 10/24/2025
Index Date Time (GOES-16) GOES-16 Lat,Lon TERRA Lat,Lon Distance(km) Time Diff (sec)
1 10/25/2025 03:52:09 -0.04,-104.65 0.77,-100.67 451.89 80
2 10/25/2025 16:11:33 0.05,-104.69 0.22,-105.39 80.23 80
3 10/27/2025 15:54:46 0.05,-104.63 -0.78,-100.71 446.08 80
4 10/28/2025 04:14:17 -0.05,-104.56 -0.22,-105.46 101.34 80
5 10/30/2025 03:52:09 -0.06,-104.51 0.74,-100.77 425.06 80
6 10/30/2025 16:11:33 0.06,-104.55 0.23,-105.49 107.14 80
7 11/01/2025 15:54:44 0.06,-104.49 -0.70,-100.80 419.74 80
8 11/02/2025 04:14:14 -0.06,-104.43 -0.29,-105.55 127.33 80
9 11/04/2025 03:52:05 -0.06,-104.37 0.66,-100.85 399.42 80
10 11/04/2025 16:11:29 0.06,-104.41 0.29,-105.58 132.95 80
11 11/06/2025 15:54:39 0.06,-104.35 -0.64,-100.88 393.69 80
12 11/07/2025 04:14:10 -0.06,-104.28 -0.35,-105.63 153.35 80
